JES3055 SAZS-SABE

Flight info

Callsign JES3055
Flight time 1h 38m
Altitude 39000
Route LIMAY2G LIMAY UW26 EGUNO UZ109 ISMIL UT655 ASADA ASADA9R
Aircraft A20N/M-SDE2E3FGHIRWXY/LB1

Departure

Time 2026-04-26 16:27
Airport Teniente Luis Candelaria International Airport (SAZS)

Arrival

Time 2026-04-26 18:05
Airport Aeroparque Jorge Newbery (SABE)
Time Latitude Longitude Altitude Speed Heading
2026-04-26 15:59 -41.14716 -71.16106 2749 ft 0 kts 68°
2026-04-26 16:20 -41.14735 -71.16169 2750 ft 4 kts 59°
2026-04-26 16:20 -41.14748 -71.16191 2750 ft 4 kts 43°
2026-04-26 16:21 -41.14769 -71.16211 2750 ft 4 kts
2026-04-26 16:21 -41.14793 -71.16204 2749 ft 4 kts 323°
2026-04-26 16:21 -41.14808 -71.16176 2751 ft 4 kts 293°
2026-04-26 16:21 -41.14813 -71.16163 2751 ft 0 kts 294°
2026-04-26 16:24 -41.14812 -71.16164 2751 ft 0 kts 294°
2026-04-26 16:24 -41.14803 -71.16191 2749 ft 6 kts 294°
2026-04-26 16:24 -41.14793 -71.16262 2750 ft 9 kts 250°
2026-04-26 16:24 -41.14847 -71.16313 2751 ft 11 kts 207°
2026-04-26 16:25 -41.14890 -71.16384 2757 ft 11 kts 270°
2026-04-26 16:25 -41.14853 -71.16502 2751 ft 17 kts 295°
2026-04-26 16:25 -41.14799 -71.16662 2750 ft 21 kts 294°
2026-04-26 16:25 -41.14734 -71.16850 2752 ft 23 kts 294°
2026-04-26 16:26 -41.14655 -71.16964 2751 ft 11 kts 326°
2026-04-26 16:26 -41.14638 -71.17017 2751 ft 8 kts 261°
2026-04-26 16:26 -41.14683 -71.16999 2751 ft 7 kts 105°
2026-04-26 16:26 -41.14735 -71.16839 2750 ft 57 kts 114°
2026-04-26 16:27 -41.15059 -71.15917 2756 ft 157 kts 115°
2026-04-26 16:27 -41.15593 -71.14384 3220 ft 200 kts 115°
2026-04-26 16:27 -41.16197 -71.12622 3938 ft 213 kts 114°
2026-04-26 16:27 -41.16841 -71.10724 4665 ft 240 kts 114°
2026-04-26 16:28 -41.17557 -71.08586 5483 ft 267 kts 114°
2026-04-26 16:28 -41.18193 -71.06211 6626 ft 274 kts 97°
2026-04-26 16:28 -41.18017 -71.03781 8352 ft 261 kts 70°
2026-04-26 16:28 -41.17464 -71.02373 9305 ft 262 kts 53°
2026-04-26 16:29 -41.15485 -71.00486 10893 ft 269 kts 16°
2026-04-26 16:29 -41.14265 -71.00187 11674 ft 272 kts
2026-04-26 16:29 -41.12357 -70.99988 12833 ft 277 kts
2026-04-26 16:29 -41.10426 -70.99639 13956 ft 283 kts 10°
2026-04-26 16:30 -41.08492 -70.99039 15059 ft 288 kts 15°
2026-04-26 16:30 -41.06561 -70.98253 16106 ft 293 kts 18°
2026-04-26 16:30 -41.04620 -70.97364 17100 ft 299 kts 19°
2026-04-26 16:30 -41.02643 -70.96418 18054 ft 305 kts 21°
2026-04-26 16:31 -41.00755 -70.94952 18526 ft 329 kts 41°
2026-04-26 16:31 -40.99096 -70.92694 18831 ft 355 kts 48°
2026-04-26 16:31 -40.97403 -70.90156 19083 ft 380 kts 47°
2026-04-26 16:31 -40.95554 -70.87560 19704 ft 391 kts 45°
2026-04-26 16:32 -40.93611 -70.85023 20566 ft 396 kts 44°
2026-04-26 16:32 -40.91599 -70.82511 21374 ft 401 kts 43°
2026-04-26 16:32 -40.89531 -70.79987 22096 ft 407 kts 42°
2026-04-26 16:32 -40.87430 -70.77445 22878 ft 412 kts 42°
2026-04-26 16:33 -40.85306 -70.74881 23641 ft 416 kts 42°
2026-04-26 16:33 -40.83155 -70.72285 24351 ft 421 kts 42°
2026-04-26 16:33 -40.80983 -70.69664 25105 ft 424 kts 42°
2026-04-26 16:33 -40.78799 -70.67029 25798 ft 428 kts 42°
2026-04-26 16:34 -40.76589 -70.64363 26370 ft 433 kts 42°
2026-04-26 16:34 -40.74401 -70.61674 26948 ft 438 kts 45°
2026-04-26 16:34 -40.72314 -70.58720 27537 ft 442 kts 47°
2026-04-26 16:34 -40.70231 -70.55731 28103 ft 445 kts 47°
2026-04-26 16:35 -40.68122 -70.52709 28616 ft 449 kts 47°
2026-04-26 16:35 -40.65996 -70.49671 29089 ft 453 kts 47°
2026-04-26 16:35 -40.63850 -70.46609 29563 ft 457 kts 47°
2026-04-26 16:35 -40.61698 -70.43545 30118 ft 458 kts 47°
2026-04-26 16:36 -40.59601 -70.40360 30550 ft 463 kts 52°
2026-04-26 16:36 -40.57666 -70.36961 31030 ft 465 kts 53°
2026-04-26 16:36 -40.55726 -70.33545 31586 ft 466 kts 53°
2026-04-26 16:36 -40.53785 -70.30135 32165 ft 465 kts 53°
2026-04-26 16:37 -40.51849 -70.26740 32770 ft 463 kts 53°
2026-04-26 16:37 -40.49917 -70.23359 33365 ft 461 kts 53°
2026-04-26 16:37 -40.47986 -70.19985 33920 ft 460 kts 53°
2026-04-26 16:37 -40.46062 -70.16628 34409 ft 460 kts 53°
2026-04-26 16:38 -40.44139 -70.13277 34937 ft 459 kts 53°
2026-04-26 16:38 -40.42217 -70.09931 35432 ft 458 kts 53°
2026-04-26 16:38 -40.40304 -70.06604 35926 ft 456 kts 53°
2026-04-26 16:38 -40.38393 -70.03285 36368 ft 456 kts 53°
2026-04-26 16:39 -40.36485 -69.99975 36740 ft 456 kts 53°
2026-04-26 16:39 -40.34566 -69.96648 37135 ft 457 kts 53°
2026-04-26 16:39 -40.32646 -69.93323 37445 ft 458 kts 53°
2026-04-26 16:39 -40.30909 -69.90318 37781 ft 458 kts 52°
2026-04-26 16:40 -40.28985 -69.86993 38121 ft 458 kts 52°
2026-04-26 16:40 -40.27057 -69.83667 38490 ft 457 kts 52°
2026-04-26 16:40 -40.25133 -69.80349 38801 ft 458 kts 52°
2026-04-26 16:40 -40.23207 -69.77030 38982 ft 457 kts 52°
2026-04-26 16:41 -40.15121 -69.63140 39001 ft 456 kts 52°
2026-04-26 16:42 -40.11271 -69.56550 39007 ft 456 kts 52°
2026-04-26 16:42 -40.07423 -69.49974 39000 ft 455 kts 52°
2026-04-26 16:43 -40.03586 -69.43431 38992 ft 453 kts 52°
2026-04-26 16:43 -39.99750 -69.36906 38983 ft 452 kts 52°
2026-04-26 16:44 -39.95921 -69.30403 38997 ft 454 kts 52°
2026-04-26 16:44 -39.92061 -69.23863 39000 ft 454 kts 52°
2026-04-26 16:45 -39.88209 -69.17350 38996 ft 454 kts 52°
2026-04-26 16:45 -39.85005 -69.11943 39001 ft 454 kts 52°
2026-04-26 16:46 -39.81135 -69.05420 39986 ft 464 kts 51°
2026-04-26 16:46 -39.79124 -69.02035 39644 ft 482 kts 51°
2026-04-26 16:46 -39.77033 -68.98522 39352 ft 499 kts 51°
2026-04-26 16:47 -39.72713 -68.91277 39314 ft 511 kts 51°
2026-04-26 16:47 -39.68360 -68.83988 39308 ft 510 kts 51°
2026-04-26 16:48 -39.64000 -68.76709 39303 ft 511 kts 51°
2026-04-26 16:48 -39.59632 -68.69432 39298 ft 511 kts 51°
2026-04-26 16:49 -39.55254 -68.62157 39299 ft 512 kts 50°
2026-04-26 16:49 -39.50867 -68.54885 39297 ft 512 kts 50°
2026-04-26 16:50 -39.46471 -68.47612 39293 ft 512 kts 50°
2026-04-26 16:50 -39.42109 -68.40414 39291 ft 512 kts 50°
2026-04-26 16:51 -39.37714 -68.33175 39291 ft 512 kts 50°
2026-04-26 16:51 -39.33311 -68.25935 39284 ft 511 kts 50°
2026-04-26 16:52 -39.29626 -68.19900 39283 ft 511 kts 50°
2026-04-26 16:52 -39.24497 -68.11511 39286 ft 511 kts 50°
2026-04-26 16:53 -39.20090 -68.04319 39286 ft 511 kts 50°
2026-04-26 16:53 -39.15670 -67.97123 39288 ft 511 kts 49°
2026-04-26 16:54 -39.11257 -67.89954 39291 ft 511 kts 49°
2026-04-26 16:54 -39.06835 -67.82786 39289 ft 510 kts 49°
2026-04-26 16:55 -39.02421 -67.75648 39280 ft 510 kts 49°
2026-04-26 16:55 -38.97990 -67.68498 39268 ft 510 kts 49°
2026-04-26 16:56 -38.91378 -67.57861 39268 ft 510 kts 49°
2026-04-26 16:57 -38.86949 -67.50754 39265 ft 510 kts 49°
2026-04-26 16:57 -38.80290 -67.40098 39260 ft 510 kts 48°
2026-04-26 16:58 -38.76594 -67.34200 39254 ft 510 kts 48°
2026-04-26 16:59 -38.69164 -67.22376 39252 ft 510 kts 48°
2026-04-26 17:00 -38.60268 -67.08273 39249 ft 511 kts 48°
2026-04-26 17:00 -38.53569 -66.97693 39241 ft 511 kts 47°
2026-04-26 17:01 -38.49095 -66.90648 39245 ft 511 kts 47°
2026-04-26 17:01 -38.44616 -66.83610 39246 ft 511 kts 47°
2026-04-26 17:02 -38.40129 -66.76574 39244 ft 511 kts 47°
2026-04-26 17:02 -38.35651 -66.69563 39240 ft 511 kts 48°
2026-04-26 17:03 -38.31766 -66.61939 39238 ft 515 kts 60°
2026-04-26 17:03 -38.28400 -66.53882 39231 ft 515 kts 60°
2026-04-26 17:04 -38.25020 -66.45848 39227 ft 515 kts 59°
2026-04-26 17:04 -38.21630 -66.37833 39218 ft 515 kts 59°
2026-04-26 17:05 -38.18236 -66.29832 39220 ft 514 kts 59°
2026-04-26 17:05 -38.14863 -66.21899 39213 ft 513 kts 59°
2026-04-26 17:06 -38.11471 -66.13942 39204 ft 512 kts 59°
2026-04-26 17:06 -38.08075 -66.05997 39197 ft 511 kts 59°
2026-04-26 17:07 -38.04680 -65.98072 39192 ft 510 kts 59°
2026-04-26 17:07 -38.01290 -65.90181 39187 ft 510 kts 59°
2026-04-26 17:08 -37.97892 -65.82290 39184 ft 509 kts 59°
2026-04-26 17:08 -37.94491 -65.74413 39178 ft 509 kts 59°
2026-04-26 17:09 -37.91664 -65.67878 39175 ft 509 kts 59°
2026-04-26 17:09 -37.87677 -65.58685 39176 ft 509 kts 59°
2026-04-26 17:10 -37.84267 -65.50843 39168 ft 509 kts 59°
2026-04-26 17:10 -37.80841 -65.42984 39163 ft 510 kts 59°
2026-04-26 17:11 -37.77418 -65.35152 39163 ft 510 kts 58°
2026-04-26 17:11 -37.73966 -65.27272 39160 ft 511 kts 58°
2026-04-26 17:12 -37.68817 -65.15552 39153 ft 512 kts 58°
2026-04-26 17:13 -37.63616 -65.03759 39148 ft 513 kts 58°
2026-04-26 17:14 -37.58398 -64.91970 39148 ft 514 kts 58°
2026-04-26 17:14 -37.53158 -64.80174 39142 ft 514 kts 58°
2026-04-26 17:15 -37.47903 -64.68389 39133 ft 515 kts 58°
2026-04-26 17:16 -37.44392 -64.60537 39129 ft 515 kts 58°
2026-04-26 17:16 -37.40877 -64.52697 39128 ft 515 kts 58°
2026-04-26 17:17 -37.37387 -64.44929 39122 ft 515 kts 57°
2026-04-26 17:17 -37.33856 -64.37082 39116 ft 515 kts 57°
2026-04-26 17:18 -37.30296 -64.29277 39116 ft 515 kts 57°
2026-04-26 17:18 -37.26723 -64.21488 39107 ft 515 kts 57°
2026-04-26 17:19 -37.21358 -64.09800 39101 ft 515 kts 57°
2026-04-26 17:19 -37.17773 -64.02012 39095 ft 515 kts 57°
2026-04-26 17:20 -37.15373 -63.96808 39093 ft 516 kts 57°
2026-04-26 17:20 -37.10584 -63.86452 39086 ft 516 kts 57°
2026-04-26 17:21 -37.06969 -63.78654 39085 ft 517 kts 56°
2026-04-26 17:21 -37.03353 -63.70873 39085 ft 518 kts 56°
2026-04-26 17:22 -36.99722 -63.63079 39079 ft 518 kts 56°
2026-04-26 17:22 -36.96107 -63.55339 39072 ft 519 kts 56°
2026-04-26 17:23 -36.92454 -63.47533 39073 ft 520 kts 56°
2026-04-26 17:23 -36.88795 -63.39733 39066 ft 521 kts 56°
2026-04-26 17:24 -36.85121 -63.31920 39065 ft 522 kts 56°
2026-04-26 17:24 -36.81440 -63.24112 39062 ft 522 kts 56°
2026-04-26 17:25 -36.77747 -63.16295 39062 ft 523 kts 56°
2026-04-26 17:25 -36.74045 -63.08478 39051 ft 524 kts 56°
2026-04-26 17:26 -36.70331 -63.00655 39055 ft 525 kts 56°
2026-04-26 17:26 -36.66630 -62.92876 39048 ft 525 kts 56°
2026-04-26 17:27 -36.62899 -62.85051 39053 ft 526 kts 56°
2026-04-26 17:27 -36.59149 -62.77207 39042 ft 527 kts 55°
2026-04-26 17:28 -36.55407 -62.69397 39048 ft 527 kts 55°
2026-04-26 17:28 -36.51630 -62.61532 39045 ft 528 kts 55°
2026-04-26 17:29 -36.49106 -62.56286 39050 ft 528 kts 55°
2026-04-26 17:29 -36.44073 -62.45852 39042 ft 529 kts 55°
2026-04-26 17:30 -36.40286 -62.38023 39033 ft 529 kts 55°
2026-04-26 17:30 -36.36488 -62.30188 39033 ft 530 kts 55°
2026-04-26 17:31 -36.32686 -62.22361 39027 ft 530 kts 55°
2026-04-26 17:31 -36.28897 -62.14581 39019 ft 530 kts 54°
2026-04-26 17:32 -36.25078 -62.06759 39015 ft 531 kts 54°
2026-04-26 17:32 -36.21253 -61.98941 39017 ft 531 kts 54°
2026-04-26 17:33 -36.18062 -61.92433 39170 ft 531 kts 55°
2026-04-26 17:33 -36.16125 -61.88507 39027 ft 540 kts 56°
2026-04-26 17:34 -36.12205 -61.80536 39008 ft 541 kts 56°
2026-04-26 17:34 -36.08288 -61.72575 39004 ft 541 kts 56°
2026-04-26 17:35 -36.03733 -61.63335 39000 ft 542 kts 56°
2026-04-26 17:35 -36.00444 -61.56678 38998 ft 542 kts 56°
2026-04-26 17:36 -35.96513 -61.48737 38995 ft 542 kts 56°
2026-04-26 17:36 -35.92611 -61.40873 38990 ft 542 kts 56°
2026-04-26 17:37 -35.88636 -61.32878 38986 ft 542 kts 55°
2026-04-26 17:37 -35.84721 -61.24978 38986 ft 542 kts 56°
2026-04-26 17:38 -35.78826 -61.13043 38978 ft 542 kts 56°
2026-04-26 17:38 -35.74889 -61.05107 38921 ft 543 kts 55°
2026-04-26 17:39 -35.72916 -61.01138 38710 ft 543 kts 55°
2026-04-26 17:39 -35.70944 -60.97176 38449 ft 543 kts 55°
2026-04-26 17:39 -35.68967 -60.93209 38171 ft 543 kts 55°
2026-04-26 17:39 -35.66990 -60.89245 37901 ft 543 kts 55°
2026-04-26 17:40 -35.65015 -60.85291 37634 ft 543 kts 55°
2026-04-26 17:40 -35.63703 -60.82666 37453 ft 543 kts 55°
2026-04-26 17:40 -35.61056 -60.77376 37104 ft 544 kts 54°
2026-04-26 17:40 -35.59074 -60.73421 36842 ft 544 kts 54°
2026-04-26 17:41 -35.57088 -60.69463 36585 ft 544 kts 54°
2026-04-26 17:41 -35.55101 -60.65507 36336 ft 544 kts 54°
2026-04-26 17:41 -35.53114 -60.61555 36087 ft 545 kts 54°
2026-04-26 17:41 -35.51120 -60.57595 35835 ft 545 kts 54°
2026-04-26 17:42 -35.49151 -60.53689 35592 ft 546 kts 54°
2026-04-26 17:42 -35.47154 -60.49731 35351 ft 546 kts 54°
2026-04-26 17:42 -35.45152 -60.45769 35110 ft 547 kts 53°
2026-04-26 17:42 -35.43148 -60.41807 34864 ft 547 kts 53°
2026-04-26 17:43 -35.41138 -60.37838 34637 ft 548 kts 53°
2026-04-26 17:43 -35.39122 -60.33861 34405 ft 549 kts 53°
2026-04-26 17:43 -35.37106 -60.29891 34166 ft 549 kts 53°
2026-04-26 17:43 -35.35079 -60.25902 33935 ft 550 kts 53°
2026-04-26 17:44 -35.33052 -60.21919 33660 ft 551 kts 53°
2026-04-26 17:44 -35.31022 -60.17935 33390 ft 553 kts 53°
2026-04-26 17:44 -35.28981 -60.13935 33114 ft 554 kts 53°
2026-04-26 17:44 -35.26941 -60.09941 32846 ft 555 kts 53°
2026-04-26 17:45 -35.24890 -60.05927 32586 ft 556 kts 53°
2026-04-26 17:45 -35.22837 -60.01915 32318 ft 557 kts 53°
2026-04-26 17:45 -35.20774 -59.97889 32051 ft 558 kts 53°
2026-04-26 17:45 -35.18711 -59.93865 31635 ft 560 kts 53°
2026-04-26 17:46 -35.16638 -59.89829 30836 ft 561 kts 53°
2026-04-26 17:46 -35.14553 -59.85777 29750 ft 566 kts 53°
2026-04-26 17:46 -35.12465 -59.81718 28880 ft 561 kts 53°
2026-04-26 17:46 -35.10405 -59.77711 28203 ft 552 kts 53°
2026-04-26 17:47 -35.08374 -59.73768 27435 ft 546 kts 53°
2026-04-26 17:47 -35.07012 -59.71128 26899 ft 543 kts 53°
2026-04-26 17:47 -35.04348 -59.65972 25882 ft 537 kts 52°
2026-04-26 17:47 -35.02361 -59.62132 25077 ft 534 kts 52°
2026-04-26 17:48 -35.00349 -59.58359 24312 ft 529 kts 50°
2026-04-26 17:48 -34.98323 -59.54690 23557 ft 526 kts 50°
2026-04-26 17:48 -34.96276 -59.51011 22759 ft 521 kts 50°
2026-04-26 17:48 -34.94367 -59.47269 21797 ft 525 kts 58°
2026-04-26 17:49 -34.93029 -59.43085 20638 ft 534 kts 73°
2026-04-26 17:49 -34.92329 -59.38638 19534 ft 536 kts 82°
2026-04-26 17:49 -34.91843 -59.34134 18453 ft 537 kts 82°
2026-04-26 17:49 -34.91278 -59.29638 17275 ft 535 kts 80°
2026-04-26 17:50 -34.90594 -59.25211 16303 ft 525 kts 78°
2026-04-26 17:50 -34.89846 -59.20919 15506 ft 511 kts 77°
2026-04-26 17:50 -34.89084 -59.16799 15085 ft 481 kts 77°
2026-04-26 17:50 -34.88355 -59.12952 14535 ft 453 kts 77°
2026-04-26 17:51 -34.87654 -59.09293 13747 ft 435 kts 77°
2026-04-26 17:51 -34.86976 -59.05768 12810 ft 421 kts 77°
2026-04-26 17:51 -34.86319 -59.02347 11882 ft 409 kts 77°
2026-04-26 17:51 -34.85681 -58.99026 10980 ft 398 kts 77°
2026-04-26 17:52 -34.85058 -58.95781 10105 ft 388 kts 77°
2026-04-26 17:52 -34.84450 -58.92612 9188 ft 380 kts 78°
2026-04-26 17:52 -34.83855 -58.89514 8264 ft 372 kts 78°
2026-04-26 17:52 -34.83271 -58.86477 7418 ft 364 kts 78°
2026-04-26 17:53 -34.82708 -58.83556 7040 ft 343 kts 78°
2026-04-26 17:53 -34.82181 -58.80833 6887 ft 318 kts 78°
2026-04-26 17:53 -34.81688 -58.78276 6864 ft 313 kts 78°
2026-04-26 17:54 -34.80702 -58.73163 6236 ft 311 kts 78°
2026-04-26 17:54 -34.80209 -58.70614 5904 ft 305 kts 78°
2026-04-26 17:54 -34.79732 -58.68158 5768 ft 292 kts 78°
2026-04-26 17:54 -34.79273 -58.65799 5651 ft 287 kts 78°
2026-04-26 17:55 -34.78800 -58.63349 5518 ft 306 kts 78°
2026-04-26 17:55 -34.78313 -58.60846 5397 ft 304 kts 78°
2026-04-26 17:55 -34.77825 -58.58341 5266 ft 304 kts 78°
2026-04-26 17:55 -34.77336 -58.55839 5136 ft 304 kts 78°
2026-04-26 17:56 -34.76847 -58.53340 5010 ft 303 kts 77°
2026-04-26 17:56 -34.75874 -58.48363 4764 ft 302 kts 77°
2026-04-26 17:57 -34.74898 -58.43384 4264 ft 304 kts 77°
2026-04-26 17:57 -34.74406 -58.40877 3846 ft 303 kts 77°
2026-04-26 17:57 -34.73917 -58.38394 3425 ft 301 kts 77°
2026-04-26 17:57 -34.73432 -58.35929 3025 ft 297 kts 77°
2026-04-26 17:58 -34.72082 -58.29072 2856 ft 257 kts 77°
2026-04-26 17:59 -34.71184 -58.25107 2859 ft 231 kts 58°
2026-04-26 17:59 -34.70121 -58.23794 2864 ft 208 kts 19°
2026-04-26 17:59 -34.68759 -58.23392 2861 ft 198 kts 352°
2026-04-26 17:59 -34.67410 -58.23448 2854 ft 192 kts 345°
2026-04-26 18:00 -34.66170 -58.23711 2852 ft 166 kts 322°
2026-04-26 18:00 -34.65357 -58.24561 2854 ft 151 kts 293°
2026-04-26 18:00 -34.64836 -58.25608 2877 ft 141 kts 292°
2026-04-26 18:00 -34.64321 -58.26540 2852 ft 125 kts 294°
2026-04-26 18:01 -34.63855 -58.27341 2869 ft 109 kts 292°
2026-04-26 18:01 -34.63422 -58.28107 2852 ft 109 kts 292°
2026-04-26 18:01 -34.62997 -58.28874 2856 ft 110 kts 292°
2026-04-26 18:01 -34.62571 -58.29647 2865 ft 110 kts 292°
2026-04-26 18:02 -34.62141 -58.30425 2861 ft 111 kts 292°
2026-04-26 18:02 -34.61856 -58.30939 2852 ft 111 kts 292°
2026-04-26 18:02 -34.61278 -58.31974 2863 ft 111 kts 292°
2026-04-26 18:02 -34.60840 -58.32764 2575 ft 118 kts 292°
2026-04-26 18:03 -34.60347 -58.33621 2072 ft 128 kts 295°
2026-04-26 18:03 -34.59850 -58.34461 1766 ft 119 kts 294°
2026-04-26 18:03 -34.59399 -58.35261 1440 ft 109 kts 290°
2026-04-26 18:03 -34.59005 -58.35988 1207 ft 101 kts 292°
2026-04-26 18:04 -34.58601 -58.36711 842 ft 104 kts 292°
2026-04-26 18:04 -34.58225 -58.37423 699 ft 99 kts 293°
2026-04-26 18:04 -34.57848 -58.38142 561 ft 101 kts 296°
2026-04-26 18:05 -34.57051 -58.39609 286 ft 110 kts 298°
2026-04-26 18:05 -34.56603 -58.40380 125 ft 113 kts 301°
2026-04-26 18:05 -34.56176 -58.41127 28 ft 99 kts 300°
2026-04-26 18:05 -34.55942 -58.41562 26 ft 32 kts 303°
2026-04-26 18:06 -34.55820 -58.41790 24 ft 31 kts 304°
2026-04-26 18:06 -34.55723 -58.41915 25 ft 8 kts 353°
2026-04-26 18:06 -34.55692 -58.41903 29 ft 0 kts 26°
2026-04-26 18:07 -34.55683 -58.41895 25 ft 4 kts 37°
2026-04-26 18:08 -34.55691 -58.41834 29 ft 10 kts 122°
2026-04-26 18:08 -34.55739 -58.41743 27 ft 15 kts 121°
2026-04-26 18:08 -34.55788 -58.41631 25 ft 16 kts 117°
2026-04-26 18:08 -34.55838 -58.41511 27 ft 16 kts 116°
2026-04-26 18:09 -34.55876 -58.41423 27 ft 0 kts 118°
2026-04-26 18:09 -34.55878 -58.41418 28 ft 1 kts 117°
2026-04-26 18:09 -34.55882 -58.41405 26 ft 2 kts 115°
2026-04-26 18:09 -34.55890 -58.41385 25 ft 3 kts 114°
2026-04-26 18:10 -34.55900 -58.41359 25 ft 4 kts 115°
2026-04-26 18:10 -34.55902 -58.41352 25 ft 0 kts 115°
2026-04-26 18:10 -34.55903 -58.41350 25 ft 0 kts 114°
2026-04-26 18:10 -34.55905 -58.41345 16 ft 1 kts 111°
2026-04-26 18:11 -34.55906 -58.41340 12 ft 0 kts 104°
2026-04-26 18:11 -34.55906 -58.41337 9 ft 1 kts 98°
2026-04-26 18:11 -34.55903 -58.41325 42 ft 1 kts 66°
2026-04-26 18:11 -34.55874 -58.41288 26 ft 7 kts 33°
2026-04-26 18:12 -34.55846 -58.41283 30 ft 1 kts 344°
2026-04-26 18:12 -34.55821 -58.41312 26 ft 9 kts 306°
2026-04-26 18:12 -34.55787 -58.41376 27 ft 4 kts 302°
2026-04-26 18:12 -34.55782 -58.41381 26 ft 1 kts 327°
2026-04-26 18:13 -34.55759 -58.41379 25 ft 2 kts 13°
2026-04-26 18:13 -34.55749 -58.41372 25 ft 1 kts 27°
2026-04-26 18:13 -34.55736 -58.41364 25 ft 0 kts 30°